RH
58 59 62 69 81 89 93 96 98 101 100 98 99 96 86 81 80 79 70 54 46 47 49 54 65 72 65 60 72 87 93 98 97 90 83 77 74 81 94 101 100 99 93 71 49 43 45 45 44 43 41 38 35 37 41 41 40 40 40 37 33 28 26 30 34 31 29 33 33 29 30 33 33 31 29 27 23 21 22 21 23 30 41 48 42 39 49
58 58 59 65 76 83 89 94 98 100 100 97 98 94 82 73 70 65 54 49 53 58 62 69 74 71 64 67 83 91 89 90 87 82 80 75 74 86 99 101 99 99 97 82 58 45 44 43 41 41 40 38 36 36 40 42 40 37 37 33 28 29 29 28 34 37 33 33 36 33 31 35 35 33 31 29 26 22 22 22 21 24 30 31 30 37 44
59 59 58 60 68 76 83 89 96 100 100 99 98 91 85 83 78 72 69 70 74 77 79 80 76 70 69 75 83 85 84 84 78 73 75 72 73 87 99 101 99 97 97 89 69 52 47 45 41 39 39 41 39 34 38 43 39 34 32 28 25 31 32 28 32 40 38 36 39 37 33 34 34 34 33 30 29 26 23 23 23 23 26 27 29 33 32
62 62 58 57 61 69 76 81 91 100 100 100 101 93 89 95 95 92 91 91 90 88 84 76 69 67 72 82 91 89 83 80 74 68 70 73 80 93 100 98 95 93 92 89 79 67 56 48 43 37 37 45 44 34 35 41 40 35 30 25 25 29 31 29 30 35 34 32 34 34 32 32 32 33 34 31 30 29 25 26 26 23 26 29 27 25 25
66 65 59 56 58 64 70 73 82 97 101 99 101 98 93 95 98 98 98 95 93 91 85 76 70 70 75 84 92 89 80 77 76 70 70 81 93 100 99 95 92 91 88 84 86 85 72 58 48 36 36 50 50 36 32 36 38 38 33 27 28 28 28 29 29 32 33 29 29 31 30 30 31 31 32 32 31 31 28 27 27 23 25 30 27 22 24
69 67 60 55 57 62 67 69 77 93 101 100 100 100 98 98 98 97 97 96 91 85 81 77 75 78 80 81 84 83 78 76 75 74 78 91 100 100 97 94 93 91 85 80 85 90 82 70 60 44 41 56 58 41 32 31 33 37 35 30 31 31 29 28 27 30 31 28 29 34 35 33 30 29 30 30 30 31 29 28 27 24 24 27 26 22 21
70 68 62 57 57 60 63 66 77 91 100 101 100 100 100 100 100 98 98 100 95 85 81 81 81 82 83 82 79 77 78 80 78 80 89 98 101 100 99 95 91 89 85 80 83 86 81 75 67 55 52 63 65 54 44 35 31 35 36 32 32 32 29 27 27 27 28 28 31 40 45 42 37 32 29 28 28 28 28 29 28 27 26 25 25 24 21
69 66 63 59 58 61 64 66 74 89 98 101 100 99 99 99 100 100 99 99 97 92 90 92 93 94 94 91 83 77 81 88 86 85 94 101 99 98 101 98 93 90 86 81 78 76 76 77 73 63 59 64 64 63 60 45 32 33 36 34 32 32 31 27 24 26 28 26 29 37 43 45 45 40 33 28 28 28 27 28 28 27 27 25 25 25 24
70 66 62 60 61 63 66 68 73 84 95 99 99 100 100 100 100 100 99 98 98 98 99 99 99 101 98 93 86 79 79 84 84 84 93 98 92 90 94 95 92 89 87 85 78 69 69 78 76 64 61 65 65 68 69 54 36 31 34 35 32 32 37 32 24 32 42 38 37 41 39 37 43 45 38 31 28 28 27 26 26 26 26 25 25 24 22
71 66 61 60 63 63 64 67 74 85 95 98 98 99 100 100 99 100 100 99 99 99 99 97 97 100 99 91 81 73 72 74 76 79 86 90 88 86 86 84 81 80 83 87 81 71 69 74 71 61 60 64 63 66 71 64 45 31 30 35 31 30 38 37 29 38 53 52 47 45 40 39 45 45 38 32 28 28 27 26 26 26 24 24 24 22 19
71 66 62 61 63 64 63 67 77 90 97 96 96 99 100 99 98 100 101 100 100 100 99 99 97 93 90 83 72 65 67 71 72 76 82 84 83 82 81 77 76 77 81 84 81 74 72 71 67 60 57 56 53 54 62 65 56 39 29 31 32 28 32 37 34 37 49 53 49 47 49 51 54 50 40 31 28 27 27 26 26 25 24 23 22 20 18
71 67 65 63 63 61 63 70 83 94 96 94 95 99 101 100 100 100 98 97 99 100 99 100 94 82 77 76 72 67 66 70 72 73 78 80 79 80 80 77 77 79 78 77 74 74 76 73 66 57 54 55 52 46 48 60 68 59 39 29 30 28 28 36 39 39 46 54 53 53 57 56 53 55 49 35 28 26 26 26 25 24 24 23 21 20 18
73 70 68 66 63 60 62 74 87 94 94 94 98 100 100 100 100 99 97 97 99 99 98 99 93 84 80 79 74 67 63 66 71 70 70 72 73 76 78 78 82 84 80 74 73 75 77 77 71 60 54 56 56 51 50 61 75 74 55 35 29 28 28 36 45 46 51 60 56 52 57 57 50 53 54 43 33 27 24 24 24 23 23 22 21 20 19
73 73 71 69 64 58 63 76 88 94 97 99 100 100 100 100 100 99 99 99 99 96 95 98 97 95 93 86 75 66 61 63 66 65 65 66 67 70 74 76 81 84 78 74 77 79 77 80 82 75 66 62 61 59 58 60 67 72 65 48 35 30 27 33 46 50 52 61 60 49 50 54 49 47 51 49 43 33 25 24 23 21 23 21 20 20 19
72 72 71 69 62 57 66 81 89 94 99 101 100 100 100 100 100 100 100 100 100 96 94 95 97 97 95 86 76 72 71 70 66 62 61 60 61 67 74 74 73 74 73 74 80 81 78 84 92 90 83 77 68 61 58 55 57 65 68 59 44 36 31 30 39 49 52 58 60 53 50 51 48 45 46 50 52 42 30 28 26 21 22 21 19 20 20
69 71 71 66 59 60 73 83 86 91 99 101 100 100 100 100 100 100 100 100 100 100 99 97 96 95 90 84 81 82 84 82 75 69 66 64 63 68 73 73 70 71 75 78 84 84 78 83 92 90 81 71 61 57 57 54 53 57 63 63 52 41 37 32 34 46 52 52 55 56 53 48 46 47 47 49 54 47 37 39 34 23 21 22 19 20 20
67 70 71 64 58 66 78 81 82 91 100 101 99 100 100 100 101 100 100 101 100 100 101 99 97 96 92 90 92 92 93 92 88 85 83 79 75 74 74 73 73 78 82 82 86 86 78 80 88 84 71 60 52 52 54 52 50 50 56 64 57 43 41 41 38 44 49 48 50 53 48 41 43 50 52 52 53 52 51 51 39 22 20 23 19 19 20
66 69 69 62 61 72 79 77 79 91 100 100 100 101 99 98 100 100 99 101 100 100 101 100 99 99 98 98 99 98 98 99 97 97 96 88 82 80 78 76 77 83 85 81 81 82 79 82 87 80 68 60 53 51 50 46 43 42 46 62 64 51 46 47 43 44 48 49 51 50 43 40 44 50 52 53 58 65 64 53 34 21 21 23 20 19 19
64 68 67 63 66 75 78 73 77 90 100 101 99 98 94 93 98 101 100 100 100 100 100 100 100 100 100 99 97 95 96 97 96 96 93 87 86 86 85 84 85 84 82 83 85 88 88 90 86 75 69 64 54 51 53 46 39 36 39 55 66 60 55 53 49 47 47 48 54 55 47 42 45 48 50 54 65 70 60 42 32 27 23 21 22 21 18
63 66 66 66 70 75 75 73 78 90 99 99 96 94 91 90 94 99 100 100 100 100 100 100 100 100 100 99 96 93 94 95 95 94 89 89 94 95 91 90 89 84 84 91 97 98 96 94 86 73 70 67 56 54 58 52 44 40 39 44 53 56 57 56 52 49 48 53 65 66 51 42 45 49 50 53 58 56 44 34 34 31 25 23 23 21 18
61 65 67 71 72 72 73 75 81 91 97 94 92 90 88 87 89 94 99 100 100 100 100 100 100 100 100 100 100 99 99 99 99 99 96 96 99 96 91 90 86 82 86 94 97 95 93 92 89 79 71 67 61 58 60 58 53 49 46 47 52 53 55 55 50 46 47 53 61 58 47 45 50 51 50 50 48 45 40 36 33 28 25 26 24 22 22
59 64 67 72 71 70 73 78 85 92 95 91 90 88 85 84 84 86 92 98 98 98 98 98 98 99 98 98 97 96 98 98 97 98 98 95 91 86 85 87 85 83 89 92 91 89 86 84 87 84 76 70 63 58 60 64 61 57 55 59 61 56 52 51 47 43 42 44 46 46 46 51 52 50 52 53 49 47 47 43 34 29 27 25 25 28 27
56 63 66 70 70 69 73 81 89 94 92 88 87 85 82 82 81 80 82 89 93 94 93 92 94 96 95 93 92 91 91 90 90 93 93 88 86 86 88 91 90 88 91 92 91 91 87 83 87 88 83 77 69 60 62 67 65 62 62 63 61 56 52 52 50 44 40 41 43 47 51 53 50 49 53 57 57 57 57 52 44 37 31 26 27 31 29
53 61 65 67 68 68 74 84 92 93 90 86 84 83 80 79 79 76 74 78 84 88 90 90 90 90 89 85 83 84 85 84 83 88 88 84 85 89 90 90 91 91 92 93 92 93 92 90 92 92 87 85 79 67 63 67 68 68 69 66 60 57 56 57 55 50 46 45 46 49 52 51 48 47 49 55 61 62 60 57 53 45 38 33 28 27 30
50 59 64 65 65 66 73 86 92 90 87 85 83 84 82 78 76 72 69 70 75 81 87 88 87 87 86 82 78 76 77 78 79 82 86 85 86 89 87 83 84 85 87 88 88 90 93 94 95 95 91 88 84 73 64 64 66 68 71 69 63 60 59 59 57 54 51 50 49 49 49 47 45 46 48 52 60 63 61 60 57 50 45 41 33 29 33
47 55 62 64 64 64 72 86 91 86 85 82 80 81 81 77 74 70 66 67 69 73 79 83 83 83 83 80 76 71 68 70 73 78 83 86 86 85 83 83 84 84 86 89 88 88 93 95 97 99 96 89 85 78 70 67 67 68 71 69 64 62 61 59 57 54 52 52 52 52 50 47 47 48 49 50 55 61 64 64 61 56 49 43 39 39 41
44 52 59 63 63 62 71 86 89 84 81 78 74 77 80 76 71 68 64 63 64 65 69 73 75 77 76 74 72 69 63 61 65 73 81 85 85 83 82 84 87 87 90 96 94 91 96 98 96 98 97 90 85 82 77 71 69 71 73 71 66 62 60 58 57 55 56 57 58 58 57 54 53 53 53 54 56 62 68 69 66 61 53 45 42 43 46
42 48 56 62 62 60 69 84 87 81 77 74 70 73 77 74 69 66 63 63 62 62 65 67 66 66 68 69 69 68 63 58 59 69 78 81 79 80 80 80 83 87 93 98 97 95 98 98 95 96 96 90 85 85 82 76 72 73 74 71 65 62 62 62 61 60 61 62 61 60 59 58 58 58 58 59 61 64 69 71 69 63 56 49 46 45 46
40 44 52 61 61 59 68 82 85 77 73 70 66 67 71 69 66 63 60 60 61 60 60 63 61 57 59 64 66 65 62 59 59 63 68 70 71 74 74 72 77 86 93 95 96 98 100 99 97 96 94 86 81 81 80 75 71 72 73 70 66 64 64 64 64 64 65 63 60 59 58 58 60 61 60 62 65 67 71 74 72 65 58 51 50 51 51
38 41 49 59 61 58 66 81 84 75 68 64 60 62 65 65 63 61 58 58 58 56 56 57 56 52 52 56 61 62 61 60 58 57 58 63 67 68 66 67 74 83 89 90 91 95 99 98 97 96 91 84 80 79 77 73 70 70 70 68 67 65 64 64 64 65 66 64 61 60 61 60 60 60 61 64 68 70 75 79 76 70 61 53 51 56 61
36 39 45 56 61 58 64 78 83 75 66 60 56 57 61 63 62 60 57 56 56 54 53 52 50 48 47 47 52 56 57 56 56 54 53 56 60 63 65 68 72 80 90 94 91 89 91 92 92 91 87 84 82 80 77 73 70 69 68 68 67 67 67 66 66 67 68 67 64 63 63 61 58 56 58 63 69 74 78 80 79 74 66 57 56 64 71
35 36 42 53 60 58 62 75 83 77 67 61 56 54 57 62 63 59 57 56 54 51 50 49 46 45 45 44 45 48 50 52 53 51 49 49 52 59 68 73 75 82 90 91 88 86 86 86 85 84 82 81 83 82 79 77 76 73 72 72 72 71 70 70 69 70 69 68 65 63 61 59 57 55 56 61 68 75 79 80 79 77 70 62 65 78 87
34 34 39 51 60 60 63 74 81 78 69 62 58 55 56 61 63 59 55 55 53 50 49 50 48 46 47 46 43 41 43 47 49 48 46 44 45 48 53 59 69 76 77 74 78 83 83 79 77 77 77 76 77 76 75 77 79 78 77 77 77 76 74 73 73 73 72 70 68 62 54 51 53 54 55 58 64 71 77 77 77 78 73 64 66 81 94
33 33 37 49 59 63 67 76 81 77 70 63 60 57 57 60 61 58 54 55 54 52 50 51 49 47 45 45 44 41 40 42 46 48 46 43 42 43 42 43 52 60 62 66 75 79 77 72 70 71 75 75 72 69 68 70 74 78 79 78 76 75 74 72 71 70 70 70 67 55 45 47 55 58 56 57 60 65 72 73 73 76 74 66 66 78 91
33 32 35 47 59 67 74 81 82 76 69 64 61 58 57 60 60 57 55 55 54 53 52 51 50 47 43 42 43 43 40 38 41 47 49 46 42 43 42 41 42 44 50 62 71 70 70 69 64 62 65 63 56 51 51 54 60 69 75 75 71 67 66 64 61 58 57 58 55 45 40 48 59 57 51 48 52 60 68 70 71 75 73 65 64 75 86
33 32 35 47 60 70 79 85 83 76 69 65 62 57 56 59 59 56 55 56 54 52 52 51 50 48 44 41 41 40 37 33 33 40 48 49 45 42 42 42 39 37 43 54 57 55 57 61 60 58 58 53 43 37 35 35 39 49 60 67 68 65 61 54 47 42 40 40 38 34 35 45 53 49 41 41 49 60 66 67 69 72 71 65 63 70 79
35 33 36 47 62 75 84 88 83 76 70 67 63 58 56 59 59 56 55 55 53 51 51 51 51 50 47 43 40 38 36 32 30 32 39 43 42 41 41 41 41 42 45 47 42 38 41 44 45 47 49 47 42 38 34 29 28 33 42 53 59 59 53 44 37 33 31 30 31 34 36 41 44 40 35 41 53 60 63 66 67 67 66 65 66 73 82
36 34 37 49 67 81 87 87 83 76 72 68 63 58 57 58 58 56 56 54 50 49 49 50 50 50 46 43 42 40 37 34 32 30 30 34 38 39 39 40 41 43 45 44 40 39 40 38 34 33 36 37 36 35 33 29 25 25 33 45 55 54 45 35 31 31 29 29 33 37 37 35 34 31 32 44 57 62 63 66 68 68 70 75 81 89 96
37 36 39 53 73 84 86 85 82 77 72 69 64 60 59 59 56 55 55 53 49 48 49 50 50 49 45 43 43 40 35 35 35 31 28 32 37 37 37 38 38 39 41 43 42 42 42 39 36 35 36 36 34 33 32 31 26 22 26 38 47 46 36 29 27 29 30 31 33 33 31 29 28 30 38 51 62 64 64 66 68 69 73 81 88 95 99
37 36 41 58 77 84 84 84 82 76 72 72 68 63 61 60 57 54 53 52 51 49 49 50 51 50 49 47 44 37 32 32 34 31 27 29 33 34 33 34 35 38 41 42 39 36 34 32 31 32 35 38 37 34 32 32 29 24 23 28 33 32 27 24 24 23 25 28 29 28 29 30 32 39 51 62 66 67 67 68 69 71 75 81 87 91 93
38 36 43 62 80 84 83 83 82 76 73 74 72 67 63 61 58 54 51 52 52 50 48 49 51 52 52 47 39 32 29 30 30 29 27 26 26 28 29 29 31 37 40 37 32 27 24 22 21 20 22 30 38 37 33 33 32 26 22 23 24 23 22 22 22 21 21 23 25 26 30 35 39 47 56 63 67 69 71 71 73 77 82 86 89 89 89
38 37 45 64 81 85 83 82 80 76 74 74 72 69 64 60 58 54 51 51 52 51 49 48 48 49 50 43 32 27 28 27 25 26 28 25 23 24 27 28 29 34 35 31 26 22 20 21 22 16 10 18 33 38 33 30 30 27 24 23 22 21 20 20 20 21 21 21 22 26 33 39 43 48 54 60 65 70 75 79 83 87 92 94 94 93 94
38 39 49 68 82 84 83 82 80 76 75 75 72 68 64 60 57 54 50 50 50 50 49 47 46 48 47 39 30 28 29 25 24 27 27 25 24 24 24 26 29 30 28 25 24 24 24 25 26 18 6 9 26 36 33 28 28 27 25 23 22 21 21 21 21 22 23 22 22 25 33 41 45 48 53 61 67 73 82 90 95 97 98 99 99 98 99
38 40 52 70 84 85 83 83 80 75 74 75 73 67 63 60 57 53 51 50 50 49 48 47 46 47 46 38 32 34 32 27 26 27 26 24 25 24 21 23 26 26 24 23 25 28 28 27 26 20 7 5 19 33 34 29 28 27 25 25 24 22 21 23 24 25 27 27 26 26 32 42 48 49 52 61 72 81 88 95 98 99 100 100 100 100 101
39 45 58 75 87 87 83 82 80 75 72 74 74 69 64 60 56 52 51 50 49 49 49 48 46 46 45 40 38 40 37 30 26 26 26 25 24 21 18 19 21 22 24 27 28 29 31 29 25 19 8 3 13 29 36 35 32 30 29 30 29 26 26 28 30 31 32 33 34 33 35 43 51 53 54 61 75 87 92 95 97 99 99 98 98 98 99
40 50 66 80 89 90 84 80 79 75 72 73 74 71 66 61 57 53 51 50 48 47 49 49 48 47 45 42 41 41 37 30 25 26 27 25 21 17 15 16 18 22 29 32 29 29 32 29 22 15 8 2 7 20 32 38 40 38 36 36 34 32 31 32 34 36 37 38 41 42 41 44 53 60 58 60 72 85 92 96 99 97 93 91 91 93 96
42 53 69 82 90 91 86 81 78 76 74 73 73 72 68 63 59 55 52 49 48 47 48 50 50 48 46 44 42 40 36 31 26 26 26 24 20 16 13 13 16 23 29 29 27 29 33 28 18 12 8 4 3 7 15 24 30 34 36 36 33 31 32 34 36 39 40 41 46 50 48 49 60 69 67 64 72 82 88 95 99 97 89 87 93 99 98
43 52 69 84 91 92 89 84 79 77 77 76 73 71 69 66 61 57 53 49 47 47 49 51 51 49 48 47 45 41 38 34 29 27 27 26 22 16 12 13 18 22 24 24 28 34 32 22 12 9 7 5 4 4 5 7 11 19 25 28 29 32 37 38 39 43 47 50 54 56 55 60 76 86 83 79 82 85 88 94 101 100 95 92 96 100 95
44 48 63 81 91 92 89 87 83 79 79 78 76 74 72 69 66 62 57 51 48 48 50 52 53 52 50 49 47 43 40 38 33 29 30 28 22 15 15 19 24 25 25 27 33 36 29 16 9 9 8 5 4 5 5 4 4 8 13 17 22 31 38 40 41 47 55 61 65 65 64 71 88 97 95 92 93 94 95 98 100 100 99 95 92 93 95
44 44 52 71 87 91 90 88 87 83 81 79 79 79 78 76 73 69 62 54 50 51 52 54 54 51 49 49 47 43 41 40 36 33 33 29 21 15 17 24 28 29 31 33 36 36 29 18 10 8 8 7 5 4 5 5 4 5 6 9 17 28 36 38 41 49 58 63 67 69 70 76 88 97 98 97 99 99 99 100 100 100 101 100 96 94 98
42 43 44 56 75 88 92 90 89 87 84 81 79 80 80 80 80 77 68 58 53 53 53 55 56 54 51 50 49 46 42 40 36 34 33 30 22 15 16 24 31 34 35 37 38 35 28 20 13 8 7 8 8 6 5 5 5 5 5 6 12 22 30 33 37 46 54 58 64 73 78 81 87 94 98 99 100 100 99 99 99 99 99 98 96 95 95
34 42 42 44 57 75 88 92 92 90 87 83 81 79 78 80 83 82 72 61 55 55 54 55 57 57 54 52 52 50 46 42 37 33 31 29 25 18 17 26 37 40 39 39 38 32 24 19 15 10 7 7 9 8 6 6 6 5 5 6 10 17 24 29 35 44 51 55 61 73 83 88 91 96 100 100 100 99 98 96 95 94 92 90 91 94 95
Wind_Speed
22 22 21 21 21 21 22 23 22 21 19 16 14 14 12 8 5 4 5 4 2 1 1 1 3 6 5 2 5 7 6 4 4 6 8 10 9 8 5 7 11 12 16 18 19 20 16 15 16 11 12 14 6 7 22 30 32 32 30 28 24 20 21 18 15 22 25 19 21 26 29 32 33 32 31 31 33 34 25 16 15 16 12 7 3 2 3
21 20 20 19 19 21 23 23 23 21 20 17 13 12 13 13 10 9 8 7 5 4 4 3 5 7 5 1 4 6 6 4 4 5 7 9 9 5 5 8 9 11 15 19 20 20 16 13 15 15 12 13 8 6 18 28 31 32 32 32 28 19 19 20 13 11 15 13 15 23 30 34 37 37 34 31 32 34 29 19 14 16 22 22 10 3 5
20 20 19 18 18 20 23 24 23 21 19 17 13 11 12 12 12 12 11 9 7 6 7 7 7 6 3 1 4 5 5 4 3 5 6 8 8 5 3 6 8 11 13 17 20 19 18 15 15 17 15 12 8 8 16 25 27 28 30 33 29 17 16 22 15 8 12 11 10 21 33 37 36 37 38 34 30 32 30 24 19 17 21 27 21 11 8
19 19 19 17 16 18 21 23 22 21 19 17 15 12 11 12 13 12 12 11 10 8 7 7 6 4 1 2 4 5 4 4 3 4 5 6 6 4 2 6 9 11 11 13 17 17 18 18 15 17 18 13 9 9 14 20 23 24 26 31 31 21 16 21 18 13 17 18 14 20 31 35 34 35 37 37 34 31 29 26 26 24 19 23 29 23 15
19 19 18 17 16 16 18 21 22 22 21 19 17 14 13 14 14 12 11 10 10 9 7 6 4 2 2 2 3 5 3 3 3 3 4 4 3 5 8 10 10 11 10 10 13 15 17 19 16 17 18 13 9 11 13 17 20 23 26 29 30 23 17 19 18 14 16 20 19 20 26 31 34 34 33 35 34 33 31 28 29 28 20 18 26 28 22
19 18 17 16 16 15 16 18 21 22 21 20 18 17 14 13 12 11 10 8 6 6 6 5 4 4 4 3 4 4 2 2 2 1 3 3 4 9 12 13 12 11 11 10 12 13 15 17 16 17 18 14 11 14 16 17 20 24 27 28 28 24 19 19 18 14 12 12 13 16 20 24 30 33 32 32 33 34 37 36 31 27 21 16 19 24 24
18 18 17 15 15 15 15 16 18 20 21 20 20 19 17 15 12 11 9 6 5 4 4 4 3 3 4 4 3 3 3 2 1 2 3 3 7 11 13 13 12 11 11 12 12 12 14 15 15 17 19 15 12 15 17 18 22 26 28 27 26 23 20 19 19 16 11 8 8 11 14 15 21 29 33 32 32 33 36 37 34 29 25 20 16 17 19
18 17 17 15 15 15 15 15 16 16 17 18 18 18 18 18 17 14 10 6 4 3 2 2 3 4 5 5 2 2 2 1 2 3 3 6 8 10 12 12 11 10 12 13 11 12 14 14 14 16 17 15 13 14 14 16 23 28 28 28 27 22 18 19 20 16 13 13 12 11 11 11 13 20 28 32 33 33 33 34 34 33 32 27 23 20 19
18 17 17 16 16 16 16 16 16 16 15 15 14 15 15 16 16 15 12 9 6 6 5 4 4 5 5 4 2 1 2 2 4 3 3 5 6 7 9 10 10 10 11 12 11 12 15 14 13 15 15 14 13 13 11 14 23 29 29 28 28 23 16 18 21 16 12 14 14 11 12 12 12 15 24 31 34 34 34 34 34 34 33 31 31 31 26
17 17 17 17 17 17 17 16 16 17 18 16 15 15 14 12 12 13 13 10 6 6 7 6 6 5 3 3 4 4 4 3 3 1 1 2 2 4 5 7 9 9 8 8 9 13 16 15 13 14 14 12 12 11 9 12 20 28 30 27 27 26 19 17 19 15 11 13 13 11 12 11 12 16 23 29 33 34 34 34 34 33 32 31 32 30 24
17 17 17 17 18 18 18 17 17 18 19 19 18 18 17 15 13 12 12 9 6 5 7 6 6 6 5 6 5 5 5 5 5 3 2 3 3 3 4 5 6 6 6 5 7 11 16 16 14 14 13 10 11 11 8 9 16 25 29 27 26 27 22 16 17 16 12 12 12 9 9 7 8 14 22 29 32 33 34 34 33 33 32 31 30 27 24
18 17 17 18 18 17 17 17 17 18 19 19 19 19 19 18 16 13 12 9 6 6 7 8 11 10 9 8 8 6 6 6 7 7 5 5 5 4 4 4 5 5 6 6 8 11 16 17 16 15 13 10 11 12 8 7 12 18 24 27 26 27 24 18 17 17 13 13 12 8 6 7 9 11 18 27 31 33 34 34 33 33 33 30 29 28 27
17 18 18 18 17 16 16 17 17 18 18 19 19 18 18 17 15 12 10 8 6 5 5 7 9 9 8 9 10 9 8 9 10 10 8 7 7 7 5 4 4 6 8 9 10 13 16 17 17 16 15 12 11 13 11 9 10 12 17 24 26 26 26 21 16 15 12 11 11 7 1 4 11 12 13 20 27 31 34 35 34 33 32 30 29 28 28
16 18 18 18 17 15 16 18 19 18 19 20 20 19 18 19 18 16 14 11 5 1 1 2 4 5 6 9 10 10 10 10 12 12 11 9 9 8 7 7 6 8 10 10 12 14 14 14 14 16 17 15 13 13 13 11 11 11 12 19 24 25 28 25 17 12 10 9 9 8 4 5 11 14 12 13 17 24 29 32 33 32 30 29 28 29 30
15 17 17 18 17 15 16 19 19 20 21 21 22 23 24 26 27 25 23 17 8 4 3 2 3 5 7 9 8 7 8 9 11 13 13 12 10 9 10 11 10 10 11 11 12 15 13 10 12 15 15 15 14 13 12 11 12 12 10 14 21 24 27 28 20 12 11 9 6 6 5 5 8 11 11 10 10 15 21 25 30 32 31 31 30 30 31
16 16 16 16 15 15 16 18 19 19 21 22 24 27 29 30 30 29 28 23 13 7 5 2 3 4 6 7 7 5 6 7 8 10 12 13 12 12 13 13 11 9 11 12 12 15 15 12 14 16 16 17 16 13 12 12 11 13 12 13 18 22 24 27 23 16 16 13 7 4 6 8 8 9 11 11 9 12 16 18 26 32 33 33 34 32 31
15 16 15 14 13 14 16 17 17 18 20 22 24 27 29 30 30 30 30 25 16 9 6 2 1 2 4 5 4 2 2 2 2 4 8 10 11 12 12 12 10 9 10 12 13 14 15 14 16 17 16 19 18 13 13 15 13 14 15 15 18 22 23 25 24 20 19 16 10 7 9 12 11 9 10 10 10 12 12 11 18 29 32 33 33 31 29
14 15 15 12 12 14 15 15 16 17 19 21 22 25 27 29 29 29 29 25 18 12 8 5 3 2 2 2 2 3 4 4 3 3 4 6 8 11 11 11 11 11 11 12 13 14 14 15 18 18 16 19 19 13 14 18 16 16 19 19 20 23 23 22 22 20 19 16 11 8 11 14 15 12 10 10 11 13 13 11 16 23 27 29 30 30 27
13 14 13 10 11 14 13 13 14 15 17 19 21 23 26 27 27 27 26 24 19 14 11 8 5 3 3 4 3 3 3 4 5 5 4 4 6 9 10 10 11 11 11 12 12 13 14 16 18 18 16 18 19 14 13 17 17 18 21 21 22 25 22 19 20 19 17 14 10 7 10 15 17 16 14 13 14 13 13 14 15 19 24 27 29 31 28
12 12 11 9 10 12 11 11 12 13 15 17 19 22 24 24 24 24 24 22 19 16 15 13 9 6 4 3 2 1 1 1 2 4 4 5 8 9 9 10 12 12 11 12 13 14 16 17 18 18 16 17 19 16 13 16 18 18 21 22 25 27 22 18 20 19 14 11 7 3 7 13 18 19 19 20 19 15 14 14 12 14 22 26 28 31 30
11 10 9 9 10 10 8 9 10 11 13 15 17 20 22 23 23 23 22 21 20 18 18 18 17 16 14 12 10 8 6 4 1 2 3 6 11 11 9 7 9 11 11 11 13 15 16 15 16 17 16 17 19 16 13 15 18 18 20 22 25 27 24 21 24 23 16 14 12 7 6 10 14 19 21 21 20 18 18 17 13 12 19 24 27 29 29
9 9 8 8 9 8 7 7 9 9 11 13 15 18 21 22 23 22 22 21 20 20 21 21 21 22 21 20 18 16 15 12 7 2 2 5 9 10 8 5 6 11 12 11 11 12 12 12 13 14 16 18 21 18 15 16 18 19 20 21 22 25 26 25 26 26 21 17 15 11 8 6 7 12 17 20 21 22 21 19 18 17 18 23 26 27 27
8 7 6 8 8 6 5 6 6 8 10 11 13 16 19 20 21 22 21 19 18 18 20 22 23 22 21 20 19 18 18 18 16 11 4 6 9 9 6 3 4 7 10 11 11 10 10 11 10 10 13 18 21 21 18 18 18 19 22 23 21 23 27 25 23 24 23 18 14 12 10 7 5 8 13 18 22 23 20 18 19 20 20 23 26 26 26
6 6 6 7 6 5 4 3 4 6 9 10 12 14 17 19 21 21 20 17 15 15 16 18 21 21 20 20 19 18 17 18 18 17 12 5 7 7 5 5 6 4 5 6 7 7 6 8 7 8 11 17 22 22 20 19 19 19 22 24 21 22 26 25 20 19 21 19 16 15 13 10 8 8 12 17 20 21 18 16 16 18 19 22 27 27 26
5 5 5 5 5 3 2 1 2 5 7 8 10 12 15 17 19 20 19 15 13 14 13 13 15 18 18 18 18 18 18 17 15 15 14 9 7 6 3 3 3 2 2 3 4 5 5 6 8 10 12 15 21 23 21 19 18 19 22 23 20 20 23 23 19 17 18 18 18 16 14 13 12 11 13 16 18 20 18 16 15 15 14 16 24 29 26
5 5 5 5 4 3 1 1 1 3 4 6 8 10 13 16 18 19 18 14 11 12 13 11 11 13 14 14 15 16 16 15 14 12 9 6 5 2 1 2 2 3 4 5 6 6 6 7 8 11 12 12 18 21 20 18 17 18 20 21 19 18 20 20 17 16 17 17 17 17 16 16 16 14 14 15 17 19 19 16 14 13 12 12 18 24 23
5 5 5 5 3 2 2 3 2 1 3 5 7 8 10 14 16 17 17 15 12 11 12 11 10 10 11 11 13 14 14 14 13 10 5 4 3 1 2 3 6 8 5 5 6 7 7 7 8 9 9 10 16 17 17 17 15 16 18 19 18 17 18 18 17 16 16 16 14 14 14 15 15 15 15 16 18 19 19 17 13 12 12 12 14 19 22
6 5 5 5 3 3 4 5 4 1 2 3 5 6 8 10 14 15 15 14 13 11 10 10 9 9 10 11 12 13 13 13 12 9 6 6 7 8 5 5 6 7 1 3 7 9 8 7 7 6 6 11 16 15 14 14 14 15 17 18 17 17 17 17 16 14 13 12 11 10 10 11 11 12 14 16 18 19 18 17 14 12 12 12 11 14 19
7 5 5 5 4 4 5 7 6 3 2 3 4 5 6 7 11 14 13 12 11 9 7 7 8 9 10 10 10 11 12 13 13 11 9 9 11 13 14 16 17 14 9 3 8 11 8 5 5 5 8 13 16 13 12 12 12 14 16 17 16 15 15 15 15 13 11 10 10 9 9 9 9 11 13 15 17 18 18 18 16 13 13 13 12 13 16
9 7 5 5 4 4 6 8 7 5 2 2 3 4 4 5 8 11 12 10 10 9 7 6 7 9 10 10 9 9 10 11 12 13 12 11 12 13 13 16 17 17 15 8 7 13 10 7 5 4 7 12 12 10 11 11 11 12 14 15 15 14 13 13 14 13 12 11 10 10 9 8 8 8 10 12 15 17 18 18 18 16 14 14 15 16 18
10 8 7 6 5 5 7 9 9 6 4 3 3 3 2 3 5 8 9 8 9 10 8 6 6 7 10 12 11 10 10 10 10 11 10 9 10 11 12 13 14 15 15 11 7 11 12 10 6 4 6 9 8 7 9 10 10 10 12 13 13 13 13 13 13 13 12 11 10 10 9 9 8 8 8 10 13 15 17 18 19 19 16 14 16 19 21
11 10 8 7 6 6 8 10 10 7 5 3 3 3 2 2 4 6 7 7 9 10 10 9 8 7 9 11 12 12 12 10 8 8 8 7 7 7 8 9 10 10 10 8 6 11 14 11 7 7 7 7 6 6 7 7 7 9 10 11 11 11 11 11 11 12 12 11 11 11 10 10 10 10 9 10 12 14 16 17 18 20 19 17 18 21 23
11 11 10 8 7 7 8 10 11 9 6 4 4 3 2 1 2 5 5 7 8 9 10 11 11 9 9 10 11 12 13 11 7 5 5 5 5 4 4 4 4 4 5 5 5 8 11 9 9 9 8 8 8 7 6 6 6 8 8 9 9 9 9 9 9 10 11 11 12 11 10 10 12 12 11 11 12 14 16 17 18 20 20 20 21 24 27
11 12 11 10 8 8 10 11 12 10 8 6 4 4 2 2 1 3 5 6 8 9 9 10 11 10 9 9 10 11 13 13 10 7 5 5 5 5 4 3 2 2 3 4 4 6 7 8 8 8 8 8 8 6 6 5 6 6 7 7 8 7 7 8 8 8 9 10 11 10 9 9 11 13 12 12 12 14 16 17 18 20 21 22 23 26 30
10 11 12 11 9 9 11 12 12 11 9 7 5 4 3 3 1 3 5 6 8 9 9 10 11 11 11 10 10 11 12 13 12 10 8 7 6 5 6 5 3 2 3 3 3 4 4 5 6 6 6 6 5 4 5 5 4 6 6 7 8 7 7 7 7 7 7 8 9 9 7 7 8 10 10 11 12 14 16 18 19 20 22 23 25 28 31
10 11 12 11 10 10 11 12 13 11 10 8 5 4 3 4 1 2 4 5 6 7 8 9 10 11 12 12 12 13 13 12 12 10 8 8 7 6 6 6 5 4 4 3 2 2 3 3 3 4 4 4 4 4 4 3 2 5 7 7 8 7 7 7 6 6 6 7 7 7 7 7 8 8 8 9 12 14 16 18 19 21 23 24 26 29 31
9 10 11 11 10 11 12 13 13 12 10 8 6 4 4 5 3 1 2 3 4 6 7 7 8 9 10 11 12 12 12 13 13 12 8 7 7 8 7 7 6 6 6 4 3 2 2 2 2 2 2 1 1 2 2 2 1 2 5 7 7 7 6 6 4 5 6 7 6 6 6 7 9 8 7 8 11 14 16 16 17 20 22 24 27 29 30
9 10 11 10 10 12 12 13 13 11 10 8 6 4 4 5 3 1 1 2 3 4 6 6 6 7 9 9 10 11 12 12 14 13 10 8 8 8 9 8 8 7 7 6 5 4 4 3 2 2 1 1 1 1 1 2 1 1 2 5 7 6 5 5 4 4 4 5 5 5 6 7 8 8 7 7 10 13 14 14 15 17 20 22 25 27 28
9 10 11 10 11 12 13 12 12 11 10 8 6 5 5 4 4 2 1 1 2 2 4 4 4 6 7 7 8 11 11 10 12 13 12 9 8 8 9 9 8 8 8 9 8 7 7 7 5 4 3 2 1 1 2 2 2 0 1 4 6 6 5 4 4 3 3 4 4 4 5 6 7 7 7 8 10 13 15 15 15 16 18 20 23 26 27
9 10 11 11 12 13 13 12 12 11 10 8 6 6 6 5 4 3 2 1 2 2 1 2 3 5 6 7 8 10 10 9 10 11 11 10 9 9 9 9 8 8 9 10 10 10 9 10 9 8 6 4 2 2 2 2 3 2 3 4 5 5 5 4 4 4 4 4 3 3 4 5 6 6 7 8 9 12 14 15 15 16 18 21 23 26 26
9 10 11 12 12 13 13 13 11 10 9 8 7 6 6 6 5 4 3 3 3 3 2 2 2 4 5 7 8 9 8 8 9 10 10 9 9 9 8 8 7 7 8 10 10 10 10 11 12 11 9 6 4 2 1 2 2 4 5 5 5 4 4 4 3 3 3 3 3 3 4 6 7 8 8 9 10 11 12 14 16 18 19 21 22 24 25
8 10 11 12 12 13 14 13 11 10 9 9 8 7 7 7 6 5 5 5 4 3 3 4 3 4 4 5 7 8 8 8 9 9 9 9 9 9 8 7 7 6 7 9 10 11 11 13 14 13 10 8 6 4 1 1 2 4 6 6 5 4 4 4 3 3 3 3 3 4 5 7 8 9 9 10 11 11 12 14 17 19 21 22 23 24 26
8 9 11 12 12 13 13 13 11 10 9 9 9 8 7 7 7 6 5 6 6 5 4 4 4 4 4 4 5 6 7 8 9 9 8 8 9 8 7 7 7 7 7 8 10 12 13 14 15 14 11 9 7 5 3 2 2 3 4 4 4 4 4 4 4 4 4 3 3 4 6 8 10 11 11 12 12 12 14 16 19 21 22 24 24 24 25
7 8 11 12 13 13 12 11 11 11 9 9 9 9 8 8 9 8 6 6 6 6 5 4 4 3 3 2 4 5 6 8 8 7 8 9 9 8 7 7 7 7 7 8 10 12 14 15 15 13 11 9 7 5 4 3 2 2 2 3 3 4 4 4 4 4 4 3 3 4 6 9 11 12 14 14 13 14 15 18 21 23 24 24 24 23 24
7 8 11 13 13 12 11 10 10 11 10 9 9 9 9 9 9 9 7 7 6 5 4 3 2 2 1 2 3 5 6 7 6 6 8 9 9 8 8 7 7 8 8 8 9 11 13 15 15 12 10 9 7 5 3 3 2 2 2 2 3 3 4 4 4 5 5 5 5 5 7 9 11 14 16 16 16 15 15 17 21 24 25 25 25 23 23
8 9 11 13 14 13 12 9 8 10 11 9 9 10 10 9 10 9 8 8 7 6 5 4 3 2 1 1 3 4 5 5 5 6 8 9 8 8 7 6 6 7 8 8 9 11 13 15 14 11 8 7 7 6 4 2 1 1 1 2 3 4 4 5 5 6 7 7 7 8 10 11 13 15 16 17 17 18 17 17 19 22 24 25 26 25 24
9 9 12 13 14 14 14 11 8 9 10 10 10 10 11 11 10 10 9 9 9 8 6 5 4 3 3 2 3 3 3 4 5 6 8 8 7 7 7 6 6 7 8 9 10 11 12 14 13 10 6 6 6 6 5 4 3 2 1 1 3 3 3 4 5 6 6 7 8 11 12 13 14 16 17 17 18 19 20 20 20 21 23 24 24 24 25
10 11 12 13 13 14 15 14 11 9 10 11 11 12 11 11 11 10 10 10 10 9 7 6 6 5 4 4 4 3 3 4 5 5 7 8 7 6 6 6 7 7 7 8 9 9 11 14 12 8 5 5 5 5 6 6 5 4 2 1 2 2 2 3 4 4 4 5 7 10 11 13 16 18 18 18 19 20 21 23 23 23 24 24 23 23 25
12 12 13 14 14 14 15 16 14 12 11 12 12 13 12 12 11 11 10 9 9 9 8 7 6 6 4 4 4 3 3 3 4 4 5 7 7 5 5 6 7 7 7 7 7 8 12 14 11 6 4 3 3 3 4 4 4 4 3 2 2 1 2 3 3 4 4 5 6 7 9 13 17 19 18 18 19 21 23 24 24 24 25 26 25 24 24
13 13 13 14 15 15 15 16 16 15 14 13 13 13 13 13 13 12 11 10 9 9 8 7 7 7 5 5 4 4 3 3 3 3 4 6 6 5 5 6 7 7 5 5 6 9 12 14 11 6 3 2 2 2 2 3 3 2 2 3 3 3 3 3 3 4 4 5 6 7 8 11 15 17 18 17 19 21 23 25 25 25 25 26 27 26 24
13 14 14 15 15 16 16 16 17 17 17 16 15 14 13 13 13 12 12 10 10 9 8 8 8 7 6 5 4 2 1 2 3 3 3 4 4 3 4 5 6 5 4 4 7 10 12 13 12 7 3 3 2 2 2 2 2 2 2 3 3 5 5 4 4 4 5 5 6 7 7 8 11 13 14 15 17 19 21 23 25 26 25 24 25 25 25
14 14 14 15 16 17 17 17 17 17 18 18 18 17 15 14 13 12 12 11 10 10 9 9 9 8 6 5 4 3 3 2 2 2 1 2 3 3 3 4 4 4 4 5 8 10 12 14 12 8 4 3 2 2 2 1 1 2 2 2 3 5 6 6 6 6 6 7 7 8 8 9 11 12 13 15 16 17 18 19 21 22 22 22 22 24 25
Wind_Direction
359 355 356 359 2 3 2 2 6 11 12 14 17 20 27 34 30 43 69 91 121 149 137 155 124 112 112 202 251 274 303 319 292 280 276 277 288 312 2 79 108 124 135 142 158 170 168 167 175 177 182 187 195 188 186 190 192 188 183 183 184 186 186 180 180 189 191 193 199 201 201 202 205 208 207 206 208 206 206 212 203 197 210 211 204 260 181
358 355 356 358 1 2 1 2 6 10 12 11 13 23 38 50 60 67 76 84 83 81 82 98 126 120 120 229 291 318 336 339 306 288 280 278 290 321 38 84 113 132 136 141 153 165 168 166 173 179 184 189 199 200 185 186 189 188 186 182 176 175 186 184 169 167 180 185 193 198 201 204 207 210 208 207 211 211 212 214 207 210 218 215 215 221 181
357 355 354 354 358 1 0 0 4 10 12 12 16 27 38 48 59 64 68 74 74 83 95 104 123 131 138 306 328 335 348 354 313 294 293 285 291 311 29 82 125 141 136 143 152 159 164 164 168 181 188 187 187 182 180 184 187 189 190 186 178 173 186 191 185 169 178 183 183 190 196 200 205 210 210 208 207 210 211 207 202 213 217 213 214 210 189
355 355 353 352 356 1 360 358 2 6 10 18 26 34 43 50 55 56 58 61 60 70 90 98 110 129 160 4 9 346 348 3 336 302 299 292 305 328 92 122 141 148 139 143 149 150 157 162 167 181 187 188 186 173 172 182 186 186 187 187 186 185 187 192 196 192 191 194 191 189 194 198 202 207 211 210 208 210 211 204 206 213 210 210 218 218 208
354 354 354 351 353 1 1 357 359 4 8 16 25 31 42 51 53 50 50 53 54 63 75 72 69 52 347 356 4 351 355 12 357 305 295 306 358 67 118 138 145 149 147 146 146 142 147 156 168 179 181 181 181 174 173 179 182 184 187 190 192 193 188 190 194 188 185 192 195 196 199 203 205 207 211 212 211 214 215 212 213 213 208 213 221 219 216
353 354 355 351 350 359 3 358 359 6 11 14 17 21 28 39 45 43 41 38 40 60 74 59 38 14 355 335 325 342 14 25 10 299 291 321 59 90 110 128 131 137 153 153 140 133 136 145 157 169 171 166 166 172 177 180 181 185 191 194 197 200 197 194 196 191 179 181 189 193 196 203 209 210 212 212 211 214 216 219 221 217 214 221 222 219 221
354 353 353 351 348 354 1 2 1 6 11 14 15 16 18 22 27 31 28 17 24 58 81 67 47 20 3 346 323 351 48 58 18 290 310 22 79 89 98 115 120 123 144 149 132 125 131 136 143 157 164 163 161 167 177 183 184 187 194 197 198 203 206 204 206 211 213 211 203 192 189 195 205 210 214 214 213 215 218 221 224 224 225 229 229 224 223
354 351 351 349 347 350 357 1 2 5 7 9 11 13 15 14 14 20 27 29 41 56 60 44 30 17 14 13 6 50 77 85 295 310 1 49 77 88 93 109 121 119 129 141 140 136 138 136 136 147 158 165 163 162 170 183 184 186 193 198 199 201 206 209 214 222 230 233 228 213 204 200 200 207 212 213 215 217 219 222 224 226 229 230 233 236 231
353 349 348 346 345 349 353 354 357 2 3 2 6 10 14 10 4 4 11 19 30 29 14 358 357 11 22 8 331 211 161 229 283 319 31 60 76 94 97 106 120 120 119 132 148 148 144 140 138 145 154 160 162 159 161 177 183 185 189 195 200 201 200 205 211 213 212 216 219 220 224 230 231 218 208 209 213 215 218 221 221 223 227 228 232 237 233
351 347 344 344 344 347 351 352 354 360 2 2 3 5 9 7 358 352 351 356 6 2 354 344 340 348 343 301 275 236 208 217 255 279 116 113 97 109 118 120 124 123 118 129 148 151 151 151 147 151 157 155 154 154 151 167 181 186 187 190 197 201 199 199 202 196 190 199 206 216 226 240 245 226 209 208 212 213 216 220 221 224 227 229 231 231 224
350 345 341 342 345 348 349 351 355 0 3 4 3 2 359 355 351 346 340 345 356 339 329 318 300 281 257 259 261 240 224 218 226 229 184 183 197 172 167 165 154 150 145 154 165 157 158 161 157 157 161 157 160 159 146 160 180 186 189 189 192 198 200 201 201 196 189 190 193 204 215 226 242 223 207 207 212 214 216 218 220 222 225 228 230 226 220
348 343 340 342 347 348 347 350 358 3 4 3 1 357 353 348 347 344 338 345 357 329 302 282 273 265 258 267 277 268 243 224 227 233 218 202 203 192 189 195 192 189 181 182 186 172 166 168 165 162 162 162 172 174 165 164 173 180 189 191 190 194 197 199 200 196 188 180 179 189 209 220 237 228 204 203 208 212 215 218 219 221 223 225 226 225 227
347 342 342 346 349 348 347 349 357 3 4 3 0 359 359 359 358 358 352 353 352 321 291 270 271 276 272 265 262 257 242 227 228 233 227 218 212 207 211 211 200 202 199 192 191 185 177 173 170 171 172 170 174 178 175 167 159 163 184 193 192 192 193 194 189 184 182 178 182 196 233 220 230 233 212 204 207 210 214 218 219 219 221 220 219 223 228
347 344 345 348 350 349 347 349 357 3 2 1 1 3 8 12 15 19 15 13 16 344 294 260 266 271 263 254 247 243 239 233 234 236 233 229 219 214 224 229 217 211 206 196 192 192 188 179 174 176 179 178 175 175 173 167 163 162 177 193 196 196 196 195 187 178 181 180 187 211 248 248 235 235 224 211 211 212 216 221 222 220 220 219 217 221 226
347 348 347 348 350 352 350 352 359 4 2 2 3 7 12 13 16 19 20 22 34 61 78 132 218 240 252 260 261 258 256 248 242 238 236 235 225 213 220 226 222 212 203 194 190 192 193 186 173 171 177 180 176 175 176 172 168 171 177 191 197 200 201 201 199 196 190 181 182 212 235 250 243 237 228 216 213 216 218 224 226 222 220 220 220 222 228
347 348 349 350 351 352 353 357 2 5 6 6 7 12 16 15 14 15 18 23 32 46 65 116 217 249 265 276 281 276 266 252 241 233 232 236 234 223 222 224 221 210 199 192 187 189 194 193 179 172 176 180 177 174 180 179 174 178 188 195 194 196 201 204 205 204 195 188 186 198 217 233 239 234 224 216 218 220 214 221 229 224 219 220 222 224 228
346 346 349 352 353 352 355 1 4 6 10 10 10 14 17 16 14 13 15 22 35 57 75 100 276 298 292 291 289 269 239 219 220 223 223 228 228 222 221 217 207 199 195 192 189 191 198 198 187 180 179 181 179 176 178 180 180 183 189 195 194 193 197 200 203 205 199 195 198 210 223 234 236 223 213 219 232 221 201 206 225 222 217 218 219 220 224
345 345 349 354 354 353 357 5 7 8 11 12 13 16 17 16 14 12 15 23 37 56 80 101 115 137 201 238 235 211 195 175 172 196 215 217 210 205 206 201 193 192 196 196 194 196 201 198 190 186 184 182 183 184 184 184 186 188 190 193 195 195 196 199 204 206 201 196 202 217 227 236 236 222 213 223 223 208 196 206 222 221 219 218 215 213 217
344 344 349 353 352 353 360 8 9 10 13 14 17 19 18 16 14 13 17 26 35 50 68 82 99 131 181 202 196 197 202 192 196 209 220 211 189 185 186 187 189 194 196 196 195 195 197 196 192 191 192 189 187 188 190 190 192 194 195 195 195 195 195 197 200 199 196 196 204 218 229 236 233 222 216 215 206 197 202 214 216 214 216 217 214 211 212
342 344 347 349 350 355 3 10 10 12 15 17 20 21 19 17 16 15 19 26 36 51 62 68 77 93 121 150 142 108 67 98 204 217 205 174 162 165 174 184 194 200 197 194 194 191 191 193 193 194 198 197 195 194 194 194 196 199 201 202 203 200 195 193 197 197 191 188 189 204 233 231 223 216 214 214 211 208 213 214 209 202 203 206 209 209 208
341 343 342 342 348 360 10 11 10 14 16 17 20 22 21 19 18 18 21 28 38 49 57 63 71 76 76 75 70 62 56 48 356 245 191 167 167 174 182 187 194 200 197 190 189 187 187 191 194 197 200 200 199 202 201 195 196 200 203 203 204 202 197 196 200 201 196 194 195 193 200 208 210 211 213 214 215 216 216 216 216 207 200 201 205 205 205
338 338 336 336 346 5 17 13 10 14 16 18 19 21 22 22 19 17 22 31 41 49 53 59 65 67 66 64 62 58 54 51 48 60 178 176 168 172 183 189 198 206 203 193 188 190 194 199 201 205 207 204 201 202 202 197 197 199 199 197 197 199 202 202 202 202 203 206 206 199 188 192 212 219 215 211 212 215 215 215 214 211 205 204 206 204 202
333 330 327 330 342 4 20 15 13 14 16 20 22 23 23 23 21 18 21 31 40 46 49 52 55 57 55 52 52 51 48 47 50 56 86 172 169 164 169 154 155 185 188 185 195 205 203 205 216 229 225 214 205 201 200 200 202 199 194 194 195 199 203 206 206 207 209 213 214 215 216 220 233 231 219 210 209 214 219 221 217 213 208 206 205 205 203
326 319 317 322 334 356 16 19 19 16 15 19 23 26 26 25 23 20 21 29 39 43 44 44 46 47 43 40 42 43 40 40 44 47 55 104 146 137 117 89 89 116 154 172 203 223 210 208 234 257 239 213 202 200 199 198 203 201 193 191 194 198 202 205 209 210 211 214 218 220 221 224 228 225 218 214 212 214 222 229 225 219 216 209 204 204 207
316 307 303 311 321 339 2 29 31 18 15 17 21 25 27 27 25 22 21 28 42 47 45 39 38 40 36 30 30 33 36 37 37 41 47 62 91 99 90 80 88 121 187 205 234 254 249 236 247 263 250 211 194 197 201 198 201 202 195 192 194 197 200 204 210 215 216 219 221 218 218 228 234 224 211 215 219 219 222 229 229 225 226 218 207 203 206
305 295 291 297 307 313 283 186 91 11 11 15 18 21 25 27 25 22 20 25 41 50 47 41 39 41 37 29 24 24 26 30 33 35 40 52 69 73 279 284 323 312 263 245 245 248 253 248 245 258 257 213 186 191 200 200 200 202 198 196 197 197 197 200 207 215 218 219 221 221 222 230 234 223 211 214 222 223 222 226 230 227 226 224 214 205 203
297 288 283 284 291 286 234 199 189 330 353 6 11 14 20 24 23 19 17 22 32 42 43 42 45 43 35 28 25 20 16 20 26 27 36 62 47 340 214 220 278 290 270 236 226 218 224 239 243 253 250 202 180 186 196 199 199 199 196 195 195 196 197 198 202 210 215 217 219 222 226 230 231 224 217 214 218 222 223 222 226 227 224 221 215 204 197
286 279 275 271 269 257 223 204 199 226 316 347 1 9 15 18 18 17 15 18 24 30 34 35 37 40 36 30 23 16 11 13 19 29 60 68 24 357 21 41 353 333 346 168 182 182 196 227 230 227 212 185 177 180 189 195 198 197 194 192 193 195 197 198 203 210 215 218 222 224 228 231 228 223 220 216 216 220 222 219 215 215 217 219 219 212 201
276 270 264 257 252 239 217 207 202 211 267 319 348 3 11 13 13 14 14 15 18 21 24 26 27 34 40 36 25 15 9 11 19 28 39 38 18 8 19 25 15 11 27 92 169 173 183 207 198 182 176 173 174 179 183 188 195 196 193 194 196 197 198 202 209 215 216 219 225 225 224 225 222 218 216 215 215 218 220 217 211 206 207 210 213 216 209
270 264 254 243 237 227 215 209 204 208 238 300 330 349 10 17 12 13 15 17 18 17 17 22 30 37 41 41 39 31 20 16 21 19 8 3 5 7 16 20 14 14 26 50 150 170 168 158 153 162 163 161 168 183 188 189 196 197 195 198 202 205 208 212 218 222 224 228 234 232 227 222 216 212 209 209 212 215 215 212 207 202 205 208 205 204 201
266 261 250 238 227 217 212 210 206 208 229 280 314 323 349 11 10 13 17 21 23 24 23 28 39 44 41 39 40 41 35 27 25 19 3 353 356 1 9 14 11 14 25 41 100 132 127 121 123 135 146 147 155 179 190 196 203 201 200 205 208 210 215 219 222 225 227 230 232 232 231 226 220 218 214 206 205 207 208 207 204 201 201 201 196 195 192
264 259 250 238 223 211 208 209 208 211 226 261 306 314 299 326 0 11 18 24 30 33 35 39 41 39 37 35 34 36 35 28 22 18 10 1 358 2 6 7 8 15 18 17 52 87 93 97 103 108 120 131 139 153 170 187 199 198 198 202 204 208 214 218 221 224 225 228 230 232 235 232 228 228 223 213 205 203 202 203 202 200 198 193 186 183 182
263 257 250 240 223 208 203 205 207 213 226 247 293 315 287 267 349 8 18 31 37 38 38 41 41 36 31 30 32 34 34 30 24 22 19 14 12 12 3 349 351 15 14 358 28 73 83 88 93 99 109 116 115 120 136 157 174 185 191 195 199 206 214 218 223 226 225 226 229 235 242 241 233 229 226 219 210 204 201 202 201 199 197 192 183 176 175
261 255 249 242 225 205 198 200 204 213 224 239 276 305 277 234 325 15 28 37 41 40 35 34 34 33 30 29 30 32 32 31 31 32 31 31 35 36 32 19 342 351 26 40 63 77 80 83 86 94 107 113 111 111 117 129 150 167 177 185 193 202 210 218 226 228 225 223 225 233 247 248 234 226 225 222 215 208 202 200 199 198 198 193 182 174 174
258 251 245 241 225 205 196 196 201 211 223 236 265 290 257 218 248 24 34 35 36 37 35 29 26 26 28 31 31 30 28 27 29 31 32 34 37 39 44 47 47 53 62 69 76 77 78 82 86 91 101 106 106 108 112 120 151 173 179 186 193 199 207 219 226 227 226 226 229 238 248 242 225 220 224 226 219 209 200 194 192 194 197 194 183 175 174
255 247 241 236 223 205 195 194 199 210 224 236 258 274 239 211 219 18 30 30 28 29 27 25 25 23 23 26 29 29 26 25 26 28 32 35 38 40 44 47 56 67 69 68 70 70 72 84 90 95 103 105 96 92 91 98 155 189 196 199 201 206 214 222 227 224 217 216 224 236 241 232 222 224 232 228 213 201 196 192 188 190 195 194 187 180 179
253 244 236 230 218 202 195 195 200 209 223 236 252 259 229 212 218 322 17 25 27 25 21 22 26 24 22 26 29 27 26 27 28 26 26 33 38 40 43 48 54 58 61 70 82 69 58 69 89 102 119 121 88 70 53 43 64 186 201 204 204 208 213 213 210 206 203 202 204 212 224 228 226 226 230 220 203 196 194 192 191 192 195 195 190 185 182
251 241 231 222 211 201 197 198 201 209 224 237 246 240 218 211 218 242 337 0 10 17 21 26 28 23 22 27 27 22 20 22 22 20 21 30 39 39 40 46 52 53 57 63 64 55 47 50 58 72 77 39 0 351 350 348 357 54 170 192 197 198 202 204 198 190 192 192 185 188 208 222 221 218 215 204 195 192 191 190 192 193 192 190 187 181 179
246 238 226 215 206 201 199 198 200 209 223 236 239 227 209 205 208 212 245 307 310 344 18 34 34 26 25 24 16 12 14 16 14 14 20 30 37 35 35 38 43 50 56 58 56 51 50 51 50 49 42 21 342 319 322 303 282 313 127 174 189 190 192 199 195 183 184 189 185 189 209 214 208 202 198 191 189 190 189 187 188 188 186 184 182 178 177
241 233 221 209 203 202 201 198 200 210 221 231 232 221 208 203 203 198 196 245 255 265 347 24 22 15 15 11 2 1 8 14 13 13 20 27 30 29 29 32 43 55 59 56 53 54 55 54 52 47 37 21 354 300 286 276 250 212 173 173 184 189 191 196 198 193 193 199 200 202 210 207 195 184 179 179 183 187 188 186 185 182 180 178 179 180 183
236 228 217 205 201 203 204 199 200 209 218 223 225 219 209 206 204 201 207 228 234 240 271 305 328 343 352 355 357 3 14 21 19 17 20 23 25 26 29 35 46 55 53 50 51 56 58 52 44 38 31 21 12 355 270 240 218 193 180 181 192 200 198 200 207 210 209 207 200 197 203 200 188 178 176 176 177 180 183 183 179 174 171 171 174 177 178
234 226 214 203 200 204 205 201 200 208 216 219 222 219 211 207 204 203 211 223 227 242 279 300 311 321 330 344 358 12 24 28 25 22 23 23 23 27 36 46 51 50 48 51 54 56 55 46 35 29 26 23 20 22 31 196 191 181 181 189 203 213 216 217 219 222 225 219 195 184 192 195 187 179 176 175 173 175 176 172 167 163 161 161 164 166 169
231 223 210 201 199 203 205 202 201 206 212 216 219 217 210 205 204 204 211 221 230 248 280 305 321 328 333 350 5 16 26 30 27 24 23 22 23 30 40 49 49 46 50 58 58 54 48 37 26 20 22 27 28 34 49 71 117 160 179 195 210 222 229 230 227 229 235 230 204 185 188 194 190 181 172 169 170 172 170 163 159 159 161 162 165 171 177
228 220 207 198 197 201 204 203 204 206 209 213 217 215 209 205 205 207 212 218 227 245 271 295 310 312 317 348 4 9 19 27 27 23 19 19 22 28 37 45 47 48 55 62 59 51 42 29 18 13 17 25 31 42 59 75 100 141 175 199 216 228 232 227 224 224 221 217 208 194 191 194 193 184 174 168 167 170 173 168 163 165 170 173 172 174 177
223 216 203 196 196 199 200 200 202 206 209 214 215 212 210 210 211 213 218 221 224 237 257 275 292 299 311 352 357 356 6 18 22 19 18 18 20 24 33 44 51 53 57 61 56 46 34 21 11 8 12 21 30 44 61 78 100 134 165 185 209 224 222 215 218 219 212 208 206 199 197 199 197 189 180 172 165 167 175 177 172 173 178 177 173 173 176
219 213 203 196 195 199 199 195 195 202 206 210 209 207 209 214 217 219 224 226 226 231 243 252 262 275 292 327 341 348 2 12 15 14 14 13 12 20 33 47 56 57 57 53 43 33 22 11 5 4 9 18 27 36 43 52 67 107 159 187 208 220 217 213 217 220 218 215 209 202 202 203 199 193 188 182 173 168 169 172 174 177 178 176 175 180 183
216 212 204 199 199 201 200 195 194 199 202 203 203 205 209 214 218 224 230 230 228 228 233 239 242 244 254 282 310 334 359 6 359 2 8 11 14 22 35 49 59 59 50 39 29 19 8 1 359 360 4 15 23 29 29 21 1 348 342 213 215 216 206 203 206 211 215 215 207 203 203 202 198 195 195 190 182 175 168 165 169 175 176 178 182 183 179
217 212 205 202 203 204 202 198 196 197 199 199 200 204 209 213 219 226 232 233 230 227 227 228 231 233 244 271 291 311 347 356 351 354 4 12 16 21 36 56 63 56 40 30 23 10 359 358 359 358 359 6 12 17 20 16 4 351 336 271 233 205 177 175 177 178 183 188 191 198 202 197 192 194 197 193 187 182 174 170 173 179 182 186 190 184 176
219 216 209 205 206 207 206 203 202 201 201 202 204 210 215 219 224 229 234 234 229 223 219 219 224 228 240 266 280 287 311 342 353 0 6 11 17 29 54 64 57 44 33 27 18 1 356 1 4 2 355 359 2 3 8 10 3 350 323 282 258 216 169 159 145 141 154 168 179 192 198 191 188 193 199 197 191 186 181 178 180 183 184 186 191 190 187
222 221 216 212 210 210 209 208 209 211 212 212 214 219 225 228 231 235 238 235 228 222 217 215 218 226 243 267 279 281 295 320 333 340 352 6 24 51 68 55 43 39 40 31 8 353 353 1 6 6 353 344 351 355 357 355 350 339 312 279 252 215 186 168 148 142 155 174 182 188 192 189 188 194 200 200 195 192 191 188 187 187 186 186 190 195 197
227 224 221 218 216 215 214 212 212 216 220 222 224 229 235 237 237 239 238 232 225 222 219 215 214 223 239 260 269 263 272 312 320 322 340 2 23 50 57 43 40 49 55 26 2 354 353 357 1 3 351 329 329 337 342 341 329 309 296 275 242 219 205 195 186 178 176 179 179 177 174 176 178 183 190 194 195 195 195 194 192 190 190 191 194 198 201
231 229 227 224 221 220 220 218 217 218 222 225 228 233 238 240 239 237 233 226 223 224 223 218 216 219 228 244 249 234 225 265 309 333 13 23 28 43 52 49 53 64 53 16 2 359 356 355 357 358 349 324 314 303 295 307 299 274 269 261 237 228 223 216 210 205 194 183 179 174 170 169 170 172 176 182 185 186 188 192 192 192 191 193 196 199 200